Tracking 22456 objects as of 7-Mar-2021
HD Live streaming from Space Station
objects crossing your sky now

ARIANE 5 R/B

Track ARIANE 5 R/B now!
10-day predictions


NORAD ID: 29498
Int'l Code: 2006-043E
Perigee: 253.5 km
Apogee: 24,801.5 km
Inclination: 6.8 °
Period: 430.9 minutes
Semi major axis: 18898 km
RCS: 22.7915 m2 (large)
Launch date: October 13, 2006
Source: France (FR)
Launch site: FRENCH GUIANA (FRGUI)

Note: This is a ROCKET BODY
aabbcc
Your satellite tracking list
Your tracking list is empty




NASA's NSSDC Master Catalog

Two Line Element Set (TLE):
1 29498U 06043E   21065.85223648  .00001957  00000-0  26180-3 0  9999
2 29498   6.7978 191.2992 6494702  42.3834 352.5354  3.34166299148081
Source of the keplerian elements: AFSPC